TimeMST,TemperatureF,Dew PointF,Humidity,Sea Level PressureIn,VisibilityMPH,Wind Direction,Wind SpeedMPH,Gust SpeedMPH,PrecipitationIn,Events,Conditions,WindDirDegrees,DateUTC
12:15 AM,31.3,9.1,40,30.32,10.0,Calm,Calm,-,N/A,,Clear,0,2012-11-04 06:15:00
12:35 AM,29.3,8.2,41,30.32,10.0,Calm,Calm,-,N/A,,Clear,0,2012-11-04 06:35:00
12:55 AM,29.7,10.8,45,30.33,10.0,Calm,Calm,-,N/A,,Clear,0,2012-11-04 06:55:00
1:15 AM,28.2,9.7,46,30.33,10.0,Calm,Calm,-,N/A,,Clear,0,2012-11-04 07:15:00
1:35 AM,26.6,9.0,47,30.32,10.0,Calm,Calm,-,N/A,,Clear,0,2012-11-04 07:35:00
1:55 AM,30.6,9.9,42,30.33,10.0,Calm,Calm,-,N/A,,Clear,0,2012-11-04 07:55:00
1:15 AM,26.8,9.3,48,30.32,10.0,Calm,Calm,-,N/A,,Clear,0,2012-11-04 08:15:00
1:35 AM,28.0,11.3,50,30.32,10.0,Calm,Calm,-,N/A,,Clear,0,2012-11-04 08:35:00
1:55 AM,30.4,11.1,45,30.33,10.0,Calm,Calm,-,N/A,,Clear,0,2012-11-04 08:55:00
2:15 AM,24.8,8.8,51,30.33,10.0,Calm,Calm,-,N/A,,Clear,0,2012-11-04 09:15:00
2:35 AM,28.0,9.7,46,30.33,10.0,Calm,Calm,-,N/A,,Clear,0,2012-11-04 09:35:00
2:55 AM,26.8,9.1,47,30.33,10.0,Calm,Calm,-,N/A,,Clear,0,2012-11-04 09:55:00
3:15 AM,26.4,10.6,51,30.33,10.0,Calm,Calm,-,N/A,,Clear,0,2012-11-04 10:15:00
3:35 AM,27.5,10.9,50,30.33,10.0,Calm,Calm,-,N/A,,Clear,0,2012-11-04 10:35:00
3:55 AM,25.7,10.6,53,30.34,10.0,Calm,Calm,-,N/A,,Clear,0,2012-11-04 10:55:00
4:15 AM,26.1,9.5,50,30.34,10.0,Calm,Calm,-,N/A,,Clear,0,2012-11-04 11:15:00
4:35 AM,25.0,11.1,56,30.34,10.0,Calm,Calm,-,N/A,,Clear,0,2012-11-04 11:35:00
4:55 AM,26.8,10.9,51,30.34,10.0,Calm,Calm,-,N/A,,Clear,0,2012-11-04 11:55:00
5:15 AM,25.9,10.4,52,30.34,10.0,Calm,Calm,-,N/A,,Clear,0,2012-11-04 12:15:00
5:35 AM,26.8,11.5,53,30.34,10.0,Calm,Calm,-,N/A,,Clear,0,2012-11-04 12:35:00
5:55 AM,23.9,10.6,57,30.35,10.0,Calm,Calm,-,N/A,,Clear,0,2012-11-04 12:55:00
6:15 AM,25.3,11.1,55,30.35,10.0,Calm,Calm,-,N/A,,Clear,0,2012-11-04 13:15:00
6:35 AM,25.7,11.3,55,30.36,10.0,Calm,Calm,-,N/A,,Clear,0,2012-11-04 13:35:00
6:55 AM,25.9,11.3,54,30.36,10.0,Calm,Calm,-,N/A,,Clear,0,2012-11-04 13:55:00
7:15 AM,26.8,11.7,53,30.36,10.0,Calm,Calm,-,N/A,,Clear,0,2012-11-04 14:15:00
7:35 AM,30.7,12.2,46,30.38,10.0,Calm,Calm,-,N/A,,Clear,0,2012-11-04 14:35:00
7:55 AM,34.3,11.8,39,30.38,10.0,Calm,Calm,-,N/A,,Clear,0,2012-11-04 14:55:00
8:15 AM,37.6,11.3,34,30.38,10.0,Calm,Calm,-,N/A,,Clear,0,2012-11-04 15:15:00
8:35 AM,40.3,11.3,31,30.38,10.0,Calm,Calm,-,N/A,,Clear,0,2012-11-04 15:35:00
8:55 AM,43.0,10.8,27,30.38,10.0,Calm,Calm,-,N/A,,Clear,0,2012-11-04 15:55:00
9:15 AM,45.0,10.6,25,30.38,10.0,Calm,Calm,-,N/A,,Clear,0,2012-11-04 16:15:00
9:35 AM,46.8,10.0,23,30.38,10.0,SSW,3.5,-,N/A,,Clear,200,2012-11-04 16:35:00
9:55 AM,48.4,10.2,21,30.38,10.0,SSW,4.6,-,N/A,,Clear,200,2012-11-04 16:55:00
10:15 AM,49.6,9.7,20,30.38,10.0,SSW,3.5,-,N/A,,Clear,210,2012-11-04 17:15:00
10:35 AM,51.1,9.7,19,30.38,10.0,South,4.6,-,N/A,,Clear,190,2012-11-04 17:35:00
10:55 AM,53.1,9.5,17,30.37,10.0,South,4.6,-,N/A,,Clear,180,2012-11-04 17:55:00
11:15 AM,53.8,8.6,16,30.36,10.0,SW,5.8,-,N/A,,Clear,230,2012-11-04 18:15:00
11:35 AM,55.2,7.7,15,30.36,10.0,South,5.8,-,N/A,,Clear,190,2012-11-04 18:35:00
11:55 AM,55.9,6.6,14,30.34,10.0,SSW,6.9,-,N/A,,Clear,200,2012-11-04 18:55:00
12:15 PM,56.8,5.2,13,30.33,10.0,SSW,3.5,-,N/A,,Clear,210,2012-11-04 19:15:00
12:35 PM,57.4,3.6,11,30.33,10.0,WSW,4.6,-,N/A,,Clear,240,2012-11-04 19:35:00
12:55 PM,58.1,3.6,11,30.32,10.0,West,6.9,-,N/A,,Clear,260,2012-11-04 19:55:00
1:15 PM,59.0,3.2,11,30.32,10.0,WSW,6.9,-,N/A,,Clear,250,2012-11-04 20:15:00
1:35 PM,58.6,4.1,11,30.31,10.0,SW,9.2,-,N/A,,Clear,230,2012-11-04 20:35:00
1:55 PM,58.5,3.7,11,30.31,10.0,SSW,9.2,-,N/A,,Clear,210,2012-11-04 20:55:00
2:15 PM,57.7,4.8,12,30.31,10.0,WSW,10.4,-,N/A,,Clear,250,2012-11-04 21:15:00
2:35 PM,58.1,4.6,12,30.31,10.0,West,10.4,-,N/A,,Clear,260,2012-11-04 21:35:00
2:55 PM,58.1,4.6,12,30.31,10.0,WSW,8.1,-,N/A,,Clear,250,2012-11-04 21:55:00
3:15 PM,58.1,4.1,11,30.31,10.0,SW,8.1,-,N/A,,Clear,230,2012-11-04 22:15:00
3:35 PM,58.1,2.8,11,30.31,10.0,SW,10.4,-,N/A,,Clear,220,2012-11-04 22:35:00
3:55 PM,57.2,3.2,11,30.31,10.0,SW,9.2,-,N/A,,Clear,230,2012-11-04 22:55:00
4:15 PM,56.7,3.6,12,30.32,10.0,WSW,6.9,-,N/A,,Clear,250,2012-11-04 23:15:00
4:35 PM,55.8,2.8,12,30.33,10.0,WSW,4.6,-,N/A,,Clear,240,2012-11-04 23:35:00
4:55 PM,54.9,3.7,13,30.33,10.0,SW,4.6,-,N/A,,Clear,230,2012-11-04 23:55:00
5:15 PM,50.5,5.2,16,30.34,10.0,Calm,Calm,-,N/A,,Clear,0,2012-11-05 00:15:00
5:35 PM,43.7,5.0,20,30.35,10.0,Calm,Calm,-,N/A,,Clear,0,2012-11-05 00:35:00
5:55 PM,41.5,5.9,23,30.36,10.0,Calm,Calm,-,N/A,,Clear,0,2012-11-05 00:55:00
6:15 PM,41.2,6.8,24,30.36,10.0,Calm,Calm,-,N/A,,Clear,0,2012-11-05 01:15:00
6:35 PM,39.6,6.8,26,30.37,10.0,Calm,Calm,-,N/A,,Clear,0,2012-11-05 01:35:00
6:55 PM,41.2,7.7,25,30.38,10.0,Calm,Calm,-,N/A,Thunderstorm,Clear,0,2012-11-05 01:55:00
7:15 PM,41.2,7.7,25,30.38,10.0,Calm,Calm,-,N/A,,Clear,0,2012-11-05 02:15:00
7:35 PM,37.6,7.5,29,30.38,10.0,WNW,3.5,-,N/A,,Clear,290,2012-11-05 02:35:00
7:55 PM,39.6,7.7,27,30.38,10.0,Calm,Calm,-,N/A,,Clear,0,2012-11-05 02:55:00
8:15 PM,38.1,7.5,28,30.39,10.0,East,3.5,-,N/A,,Clear,100,2012-11-05 03:15:00
8:35 PM,37.9,8.4,30,30.38,10.0,Calm,Calm,-,N/A,,Clear,0,2012-11-05 03:35:00
8:55 PM,38.3,7.2,28,30.39,10.0,Calm,Calm,-,N/A,,Clear,0,2012-11-05 03:55:00
9:15 PM,35.6,8.1,32,30.38,10.0,Calm,Calm,-,N/A,,Clear,0,2012-11-05 04:15:00
9:35 PM,34.9,7.9,32,30.38,10.0,Calm,Calm,-,N/A,,Clear,0,2012-11-05 04:35:00
9:55 PM,33.6,7.3,33,30.39,10.0,Calm,Calm,-,N/A,,Clear,0,2012-11-05 04:55:00
10:15 PM,33.3,7.9,35,30.39,10.0,Calm,Calm,-,N/A,,Clear,0,2012-11-05 05:15:00
10:35 PM,36.1,7.5,30,30.39,10.0,Calm,Calm,-,N/A,,Clear,0,2012-11-05 05:35:00
10:55 PM,34.2,8.1,34,30.39,10.0,Calm,Calm,-,N/A,,Clear,0,2012-11-05 05:55:00